Location: Pasadena, ca
(34.1243°N, 118.1037°W)
Time: 18:18:25
(UTC-08:00)

Hubble Space Telescope - Pass Details

Date: 09 October 2017
Orbit: 537 x 541 km, 28.5° (Epoch: 16 December)

Event Time Altitude Azimuth Distance (km) Brightness Sun altitude
Exits shadow 05:28:54 26° 210° (SSW) 1,085 2.0 -18.2°
Maximum altitude 05:29:34 27° 193° (SSW) 1,049 2.1 -18.1°
Drops below altitude 10° 05:33:05 10° 134° (SE) 1,786 4.0 -17.4°
Sets 05:35:35 0° 122° (ESE) 2,677 5.2 -16.9°
